ROMMA est une association bénévole à but non lucratif. Votre soutien est indispensable : ADHERER à ROMMA ou FAIRE un DON

Die - (26, Drôme)

Diois (400 m)   Longitude: 5° 21' 55"E   Latitude: 44° 45' 16"N Station partenaire n°159
 

Détail journalier du     <<     >>

Température Precipitation Humidité Pression Vent Dir Rafale Dir. rafale Ensol.
Heure (°C) (mm) (%) (hPa) (km/h) (km/h) (min)
01:00 -0.909110271SSO3SSO0
02:00 0.308810271SSO5SE0
03:00 1.608410261NO5SE0
04:00 1.4086102603NO0
05:00 1.30.492102605NNE0
06:00 1.70.29410261NNE3NNE0
07:00 2.10.294102603ESE0
08:00 3.40.29110262ESE10ENE0
09:00 3.009310271S6S0
10:00 3.9095102703S50
11:00 5.4093102703SO20
12:00 6.808810271SO5SSE10
13:00 9.207710263SSO8SSO60
14:00 10.307410263ONO8ONO60
15:00 10.107510252SO6SO30
16:00 10.906410263ONO11ONO0
17:00 10.706410264NE13NE0
18:00 9.206910274NO15NO0
19:00 8.607110276NO16NO0
20:00 8.706910288NO26NO0
21:00 7.607010286ONO15ONO0
22:00 6.207510294N10NO0
23:00 7.707010296NNO19ONO0
minuit 8.706610306NO21NO0

Graphique du 10-01-2020

 

Serveur OMMA